#timestamp,LO_Frequency,Hit,StdDev 
1626768015.9,286046993.3,Y
1626768035.7,286046999.5,P
1626768055.6,286046997.8,N
1626768075.4,286046994.9,P
1626768095.2,286046995.1,N
1626768115.1,286046995.2,N
1626768116.0,286046995.2,N
1626768135.8,286046994.9,Y
1626768155.7,286046998.5,P
1626768175.5,286046998.8,N
1626768195.3,286046998.7,N
1626768215.2,286046998.4,N
1626768235.0,286046999.3,N
1626768235.9,286046999.3,N
1626768255.8,286046999.2,N
1626768275.6,286046998.4,N
1626768295.4,286046998.7,N
1626768315.3,286047001.0,N
1626768335.1,286046998.8,N
1626768355.8,286046996.7,Y
1626768375.7,286046997.6,P
1626768395.5,286046997.9,P
1626768415.4,286046994.9,P
1626768435.2,286046995.1,Y
1626768455.0,286046998.6,P
1626768455.9,286046998.6,N
1626768475.8,286047000.3,N
1626768495.6,286047000.7,N
1626768515.5,286046998.2,N
1626768535.3,286046998.4,N
1626768555.1,286046998.3,N
1626768575.9,286046999.3,N
1626768595.7,286047000.0,N
1626768615.5,286047000.6,N
1626768635.4,286047002.8,N
1626768655.2,286047002.7,N
1626768675.1,286047000.4,N
1626768676.0,286047000.4,N
1626768695.8,286047000.8,N
1626768715.6,286047000.3,N
1626768735.5,286047000.4,N
1626768755.3,286047000.3,N
1626768775.1,286047000.1,N
1626768795.9,286046999.4,N
1626768815.7,286046997.1,N
1626768835.6,286046997.3,N
1626768855.4,286046997.8,N
1626768875.2,286046995.4,Y
1626768895.1,286046996.0,P
1626768896.0,286046996.0,N
1626768915.8,286046993.5,P
1626768935.7,286046996.1,N
1626768955.5,286046995.1,N
1626768975.3,286046995.3,N
1626768995.2,286046995.8,N
1626769015.9,286046995.3,N
1626769035.7,286046995.2,Y
1626769055.6,286046998.1,P
1626769075.4,286046999.6,N
1626769095.3,286046998.4,N
1626769115.1,286047000.6,N
1626769116.0,286047000.6,N
1626769135.8,286047000.5,N
1626769155.7,286047000.3,N
1626769175.5,286046999.7,N
1626769195.3,286047001.6,N
1626769215.2,286047001.8,N
1626769235.0,286047002.2,N
1626769235.9,286047002.2,N
1626769255.8,286047001.7,N
1626769275.6,286047001.6,N
1626769295.4,286047002.7,N
1626769315.3,286047000.2,N
1626769335.1,286047000.0,N
1626769355.8,286047000.9,N
1626769375.7,286046998.1,N
1626769395.5,286047001.0,N
1626769415.4,286047001.2,N
1626769435.2,286046998.2,N
1626769455.0,286046998.1,N
1626769455.9,286046998.1,N
1626769475.8,286046999.7,N
1626769495.6,286047000.0,N
1626769515.4,286047002.8,N
1626769535.3,286047002.3,N
1626769555.1,286047002.1,N
1626769575.9,286047002.1,N
1626769595.7,286047001.3,N
1626769615.5,286047003.7,N
1626769635.4,286047003.5,N
1626769655.2,286047002.9,N
1626769675.0,286047003.3,N
1626769675.9,286047003.3,N
1626769695.8,286047003.0,N
1626769715.6,286047006.0,Y
1626769735.5,286047001.9,P
1626769755.3,286047001.5,P
1626769775.1,286047003.5,P
1626769795.9,286047004.0,Y
1626769815.7,286047000.2,P
1626769835.6,286047001.2,N
1626769855.4,286047001.2,N
1626769875.2,286047000.7,N
1626769895.1,286046999.0,N
1626769896.0,286046999.0,N
1626769915.8,286046996.5,Y
1626769935.6,286046996.7,P
1626769955.5,286046999.4,N
1626769975.3,286046996.9,N
1626769995.2,286046999.2,N
1626770015.9,286046996.6,N
1626770035.7,286046996.8,N
1626770055.6,286046996.7,N
1626770075.4,286046999.4,N
1626770095.2,286047000.8,N
1626770115.1,286047000.4,N
1626770116.0,286047000.4,N
1626770135.8,286047000.0,N
1626770155.7,286047002.0,N
1626770175.5,286047003.9,N
1626770195.3,286047003.0,N
1626770215.2,286047005.0,N
1626770235.9,286047005.8,N
1626770255.7,286047007.5,N
1626770275.6,286047008.0,N
1626770295.4,286047009.9,N
1626770315.3,286047012.0,Y
1626770335.1,286047009.7,P
1626770336.0,286047009.7,N
1626770355.8,286047013.6,P
1626770375.7,286047012.8,N
1626770395.5,286047015.3,Y
1626770415.3,286047007.1,P
1626770435.2,286047007.3,P
1626770455.0,286047004.5,P
1626770455.9,286047004.5,N
1626770475.8,286047005.8,Y
1626770495.6,286046999.0,P
1626770515.4,286046996.6,N
1626770535.3,286046997.4,N
1626770555.1,286046996.7,N
1626770575.9,286046997.1,N
1626770595.7,286046995.3,N
1626770615.5,286046995.4,N
1626770635.4,286046997.9,N
1626770655.2,286046995.7,N
1626770675.0,286046995.2,N
1626770675.9,286046995.2,N
1626770695.8,286046997.7,N
1626770715.6,286046997.5,N
1626770735.4,286046997.6,N
1626770755.3,286046997.0,N
1626770775.1,286046996.7,N
1626770795.9,286046995.7,N
1626770815.7,286046994.6,N
1626770835.5,286046994.5,N
1626770855.4,286046991.9,Y
1626770875.2,286046986.3,P
1626770895.1,286046993.3,N
1626770896.0,286046993.3,N
1626770915.8,286046995.5,N
1626770935.6,286046995.0,N
1626770955.5,286046995.9,N
1626770975.3,286046996.4,N
1626770995.2,286046996.0,N
1626771015.9,286046993.8,N
1626771035.7,286046993.4,N
1626771055.6,286046995.2,N
1626771075.4,286046997.7,N
1626771095.2,286046995.3,N
1626771115.1,286046996.0,N
1626771116.0,286046996.0,N
1626771135.8,286046996.3,N
1626771155.7,286046996.3,N
1626771175.5,286046995.3,N
1626771195.3,286046995.4,N
1626771215.2,286046995.0,N
1626771235.0,286046997.5,N
1626771235.9,286046997.5,N
1626771255.8,286046996.7,N
1626771275.6,286046997.9,N
1626771295.4,286046997.3,N
1626771315.3,286046997.9,N
1626771335.1,286046995.3,N
1626771355.9,286046993.5,N
1626771375.7,286046993.9,N
1626771395.5,286046994.6,N
1626771415.4,286046992.3,Y
1626771435.2,286046995.4,P
1626771455.1,286046996.3,P
1626771456.0,286046996.3,P
1626771475.8,286046993.5,Y
1626771495.6,286046996.8,P
1626771515.5,286046997.3,P
1626771535.3,286046995.4,P
1626771555.2,286046996.4,Y
1626771575.9,286046999.5,P
1626771595.7,286046998.3,N
